Flag for Tajikistan Weather past 2 weeks in Dushanbe, Tajikistan

Now
54 °F

Partly sunny.


Feels Like: 49 °F
Forecast: 40 / 57 °F
Wind: 15 mph from West

Location: Dushanbe Airport

Current Time: Mar 4, 2015 at 5:24:28 PM

Latest Report: Mar 4, 2015 at 5:00 PM


Visibility: N/A

Pressure: 29.92 "Hg

Humidity: 51%

Dew point: 36 °F

Location of DushanbeLocation

Historic Weather in Dushanbe — Graph

°F

Dushanbe temperature yesterday

Maximum temperature yesterday: 55 °F (at 12:30 PM)
Minimum temperature yesterday: 37 °F (at 7:00 AM)
Average temperature yesterday: 46 °F

Past Weeks' High & Low Weather Summary

 TemperatureHumidityPressure
High63 °F (Feb 22, 1:00 PM)100% (Feb 18, 12:00 AM)30.36 "Hg (Feb 18, 12:00 AM)
Low28 °F (Feb 24, 8:00 PM)29% (Mar 4, 2:00 PM)29.83 "Hg (Feb 22, 3:30 PM)
Average43 °F78%30.07 "Hg
* Reported Feb 17 4:00 PM — Mar 4 4:00 PM, Dushanbe, Weather by CustomWeather, © 2015

Note: Actual official high and low records may vary slightly from our data, if they occured in-between our weather recording intervals... More about our weather records

Advertising

Dushanbe weather history for previous 24 hours

 ConditionsComfort  
Time TempWeatherWind HumidityBarometerVisibility
4:00 PM
Wed, Mar 4
55 °FPartly sunny.6 mph36%29.92 "HgN/A
3:30 PM57 °FPartly sunny.6 mph33%29.92 "HgN/A
3:00 PM57 °FPartly sunny.3 mph29%29.92 "HgN/A
2:30 PM57 °FPartly sunny.3 mph29%29.92 "HgN/A
2:00 PM57 °FPartly sunny.3 mph29%29.92 "HgN/A
1:30 PM57 °FPartly sunny.1 mph36%29.92 "HgN/A
1:00 PM55 °FClear.3 mph41%29.92 "HgN/A
12:30 PM54 °FScattered clouds.6 mph41%29.92 "HgN/A
12:00 PM54 °FPassing clouds.3 mph44%29.92 "Hg5 mi
11:30 AM52 °FClear.3 mph54%29.95 "Hg4 mi
11:00 AM50 °FClear.3 mph62%29.95 "Hg3 mi
10:30 AM50 °FClear.1 mph62%29.95 "Hg2 mi
10:00 AM50 °FScattered clouds.1 mph54%29.95 "Hg4 mi
9:30 AM46 °FFog.1 mph66%29.95 "Hg2 mi
9:00 AM43 °FFog.1 mph76%29.95 "Hg2 mi
8:30 AM41 °FClear.1 mph76%29.95 "Hg6 mi
8:00 AM39 °FClear.1 mph81%29.95 "Hg4 mi
7:30 AM37 °FClear.No wind81%29.92 "Hg4 mi
7:00 AM36 °FClear.1 mph87%29.92 "Hg4 mi
6:30 AM36 °FPassing clouds.1 mph87%29.92 "HgN/A
6:00 AM36 °FPassing clouds.No wind81%29.92 "HgN/A
5:30 AM37 °FPassing clouds.3 mph75%29.92 "HgN/A
5:00 AM36 °FPassing clouds.1 mph87%29.95 "HgN/A
4:30 AM37 °FPassing clouds.1 mph87%29.95 "HgN/A
4:00 AM37 °FPassing clouds.3 mph87%29.95 "HgN/A
3:30 AM36 °FPassing clouds.No wind93%29.98 "HgN/A
3:00 AM37 °FPassing clouds.1 mph81%29.98 "HgN/A
2:30 AM37 °FPassing clouds.No wind87%30.01 "HgN/A
2:00 AM39 °FPassing clouds.3 mph81%30.01 "HgN/A
1:30 AM39 °FPassing clouds.1 mph81%30.01 "HgN/A
12:30 AM37 °FPassing clouds.3 mph87%30.04 "HgN/A
12:00 AM41 °FPassing clouds.3 mph76%30.04 "HgN/A
11:30 PM
Tue, Mar 3
41 °FOvercast.1 mph81%30.07 "HgN/A
11:00 PM41 °FOvercast.1 mph81%30.07 "Hg6 mi
10:30 PM39 °FPassing clouds.1 mph81%30.07 "HgN/A
10:00 PM41 °FPassing clouds.3 mph81%30.07 "HgN/A
9:30 PM43 °FPassing clouds.3 mph76%30.07 "Hg6 mi
9:00 PM43 °FPassing clouds.6 mph76%30.07 "HgN/A
8:30 PM43 °FPassing clouds.3 mph76%30.07 "HgN/A
8:00 PM41 °FPassing clouds.8 mph81%30.07 "HgN/A
7:30 PM45 °FMostly cloudy.13 mph71%30.07 "HgN/A
7:00 PM46 °FOvercast.8 mph66%30.07 "HgN/A
6:30 PM48 °FMostly cloudy.3 mph62%30.07 "HgN/A
6:00 PM48 °FMore clouds than sun.3 mph62%30.07 "HgN/A
5:30 PM50 °FMore clouds than sun.6 mph58%30.07 "HgN/A
5:00 PM50 °FCloudy.8 mph58%30.04 "HgN/A
Weather by CustomWeather, © 2015

See weather overviewHow to use our weather pages